Temp
25 25 25 25 24 23 23 23 23 22 22 22 22 22 21 22 23 22 21 20 20 20 20 20 19 19 18 17 17 16 16 15 15 13 11 11 10 11 11 10 10 10 10
26 25 25 25 24 24 23 23 23 23 22 22 22 21 21 21 21 21 21 21 21 20 20 19 20 19 19 18 17 16 16 15 15 14 12 11 11 11 10 10 10 10 10
26 25 25 24 24 23 23 22 22 21 21 21 20 20 21 21 21 21 20 21 21 20 19 19 20 20 19 19 16 16 16 15 14 14 13 11 11 10 10 10 10 10 10
26 25 24 23 23 22 22 21 21 20 20 20 20 21 21 22 21 21 21 21 20 20 20 20 20 20 19 19 17 16 15 15 14 14 12 11 11 11 11 10 10 10 10
24 23 23 22 21 21 21 21 21 20 20 20 20 20 21 21 21 21 21 21 20 20 20 20 20 19 19 18 17 16 15 15 14 13 12 12 11 11 12 11 10 10 10
23 22 22 22 21 20 21 21 21 20 20 20 20 21 21 21 21 21 20 21 20 20 20 20 19 19 19 18 16 16 15 16 14 13 13 13 12 12 12 11 11 10 10
22 22 22 21 21 21 21 21 20 20 20 20 21 21 21 20 20 20 20 21 21 20 19 20 19 19 19 18 17 17 16 16 15 14 14 13 13 12 12 12 11 11 11
20 20 20 20 20 20 20 20 20 20 20 19 19 20 20 20 19 19 19 20 20 20 20 19 19 19 18 18 17 17 17 16 15 13 13 13 13 12 12 12 11 11 11
19 19 19 19 19 20 20 20 18 18 18 18 19 19 20 19 19 19 19 19 19 19 19 19 18 17 17 17 17 17 17 16 15 13 12 12 12 12 12 12 12 12 12
18 18 18 19 19 19 18 18 18 18 17 18 18 19 19 19 18 19 20 19 19 19 18 17 17 16 16 17 16 16 17 16 15 13 13 12 12 11 11 12 11 12 12
18 18 18 18 18 17 17 18 18 17 17 17 18 18 19 19 19 19 19 19 18 18 17 16 15 16 15 15 15 15 15 15 15 13 13 13 12 11 12 12 12 11 12
17 17 16 16 16 17 17 17 17 17 17 17 17 16 17 16 17 17 17 17 17 17 17 16 16 16 15 15 14 14 14 15 14 13 13 14 13 12 12 12 12 12 12
17 17 17 17 16 16 16 16 16 16 16 16 16 15 15 15 16 16 16 16 17 17 17 16 15 15 15 15 14 14 14 14 13 13 13 13 13 12 11 12 12 11 11
17 16 16 16 16 15 15 15 15 15 15 16 15 14 14 14 15 16 16 16 17 18 18 17 15 16 15 15 14 13 14 14 13 13 13 12 12 12 12 12 12 11 11
15 15 15 15 15 14 14 14 14 14 14 14 13 12 12 13 14 16 16 16 16 16 17 16 16 16 15 15 14 13 14 13 13 12 12 13 13 12 12 12 11 11 12
14 15 15 15 14 14 13 13 13 13 13 13 13 12 12 12 12 14 16 15 16 16 16 15 15 16 16 15 14 13 14 14 13 12 13 13 13 13 12 12 12 11 12
14 14 14 14 14 14 14 13 12 12 12 12 13 13 14 14 14 14 14 15 15 15 15 15 14 15 15 15 16 13 13 14 14 12 13 13 13 13 12 12 12 12 12
14 14 14 14 14 13 13 13 12 12 12 12 12 13 13 12 13 13 13 13 14 13 13 13 13 14 14 14 14 14 13 13 13 13 13 13 13 13 13 12 12 12 12
13 13 13 13 12 12 12 12 12 11 11 11 11 11 12 12 12 11 11 12 12 12 13 13 13 13 13 14 14 14 14 14 13 13 13 13 13 13 13 13 12 12 12
13 12 12 12 11 12 12 12 12 11 11 10 10 7 11 11 11 11 11 11 12 12 12 12 13 13 13 13 13 13 13 14 13 13 14 13 13 13 13 13 12 12 13
12 12 11 11 11 12 12 11 11 10 10 9 7 5 5 7 7 8 8 9 10 10 12 12 12 13 13 13 13 13 13 13 13 13 13 13 13 13 13 12 12 12 13
11 11 11 11 12 12 11 11 11 9 7 6 4 4 4 4 5 5 6 7 8 9 10 11 12 12 12 13 13 13 13 13 13 12 14 14 13 13 13 12 13 13 13
10 10 11 11 11 11 11 10 9 7 6 6 5 5 5 4 4 5 5 6 6 7 8 10 10 11 11 12 12 13 13 13 13 13 13 13 13 13 13 12 13 13 13
11 12 11 10 10 10 9 9 7 6 5 4 3 4 5 6 5 5 5 5 6 6 7 8 10 10 11 11 12 12 12 13 13 13 13 13 14 13 12 13 13 13 13
10 10 10 9 9 9 9 8 7 6 5 4 5 4 5 5 6 6 6 5 5 6 6 7 9 10 10 10 11 11 12 12 12 12 12 12 13 13 12 13 12 12 12
9 9 9 8 8 8 7 7 6 5 5 5 4 3 3 2 3 3 4 4 5 7 7 8 9 9 9 10 10 11 11 12 12 12 12 12 12 12 12 12 12 12 12
Height
1526 1528 1530 1531 1534 1534 1535 1535 1534 1536 1537 1537 1537 1536 1535 1534 1533 1532 1531 1529 1527 1526 1524 1523 1522 1520 1518 1516 1514 1515 1515 1515 1514 1512 1514 1515 1517 1518 1519 1523 1524 1526 1527
1522 1525 1527 1529 1531 1532 1532 1533 1533 1532 1534 1535 1535 1533 1532 1530 1530 1529 1527 1525 1522 1520 1520 1518 1516 1516 1515 1514 1511 1511 1513 1513 1513 1512 1510 1513 1516 1518 1520 1522 1524 1526 1527
1519 1522 1525 1527 1529 1530 1531 1532 1532 1533 1533 1532 1532 1530 1528 1528 1526 1526 1524 1520 1516 1516 1508 1511 1511 1512 1513 1511 1510 1509 1511 1511 1512 1510 1508 1512 1515 1515 1517 1521 1524 1525 1525
1516 1519 1522 1525 1527 1529 1530 1531 1532 1531 1530 1530 1530 1529 1526 1524 1522 1520 1518 1515 1511 1509 1506 1506 1508 1509 1509 1508 1507 1507 1508 1509 1511 1510 1509 1512 1516 1515 1517 1519 1522 1522 1523
1512 1516 1520 1522 1525 1526 1528 1528 1528 1528 1527 1528 1527 1525 1522 1520 1518 1516 1513 1510 1509 1506 1503 1503 1504 1506 1507 1506 1504 1505 1506 1506 1509 1510 1509 1511 1513 1513 1515 1518 1519 1520 1522
1510 1513 1516 1519 1522 1524 1525 1524 1524 1524 1524 1524 1523 1520 1517 1514 1513 1511 1508 1506 1505 1504 1501 1501 1501 1503 1503 1503 1503 1503 1503 1504 1506 1508 1508 1509 1512 1514 1514 1516 1518 1519 1519
1508 1511 1513 1517 1519 1521 1520 1521 1521 1521 1520 1519 1517 1514 1511 1508 1507 1506 1504 1501 1499 1499 1499 1498 1498 1499 1500 1500 1500 1502 1502 1502 1504 1506 1508 1508 1511 1514 1515 1515 1516 1517 1517
1507 1509 1512 1514 1516 1517 1517 1518 1518 1517 1516 1513 1511 1509 1506 1505 1504 1503 1501 1497 1496 1495 1494 1496 1495 1496 1496 1498 1499 1500 1500 1501 1501 1504 1507 1509 1511 1514 1514 1515 1516 1515 1516
1505 1507 1509 1510 1512 1513 1514 1515 1515 1514 1512 1510 1508 1505 1503 1502 1502 1501 1498 1496 1495 1494 1490 1491 1494 1493 1493 1494 1497 1499 1500 1500 1501 1503 1505 1508 1510 1513 1513 1514 1514 1513 1513
1503 1505 1506 1507 1509 1510 1511 1512 1511 1510 1508 1508 1505 1503 1501 1499 1499 1499 1497 1495 1494 1492 1490 1489 1488 1493 1493 1494 1497 1499 1499 1500 1500 1502 1504 1506 1509 1510 1512 1513 1513 1512 1511
1502 1504 1505 1506 1507 1509 1509 1509 1509 1509 1508 1506 1504 1502 1499 1497 1498 1498 1497 1495 1493 1491 1489 1489 1487 1488 1492 1494 1497 1499 1500 1499 1500 1501 1503 1505 1507 1510 1512 1513 1512 1511 1509
1500 1503 1505 1506 1508 1508 1508 1508 1508 1507 1506 1504 1503 1501 1499 1497 1496 1496 1495 1495 1493 1491 1489 1488 1489 1488 1493 1493 1496 1499 1500 1500 1500 1501 1502 1505 1506 1509 1511 1510 1510 1510 1508
1499 1502 1505 1506 1507 1508 1508 1507 1506 1505 1504 1503 1501 1500 1499 1498 1496 1495 1494 1493 1492 1490 1488 1488 1489 1491 1491 1494 1496 1500 1499 1501 1501 1501 1504 1506 1507 1509 1509 1508 1509 1510 1507
1498 1501 1504 1505 1507 1507 1506 1506 1505 1504 1503 1501 1500 1499 1497 1496 1495 1494 1492 1491 1489 1487 1486 1486 1487 1489 1490 1494 1496 1500 1500 1501 1503 1503 1505 1507 1508 1507 1507 1507 1509 1508 1508
1496 1500 1502 1504 1506 1507 1506 1505 1504 1504 1502 1500 1499 1497 1495 1494 1493 1491 1489 1488 1486 1485 1484 1485 1484 1486 1487 1491 1493 1499 1501 1499 1501 1503 1503 1504 1506 1507 1507 1509 1509 1508 1508
1497 1500 1501 1503 1507 1507 1506 1504 1504 1503 1503 1500 1498 1496 1493 1492 1491 1489 1487 1486 1484 1483 1483 1483 1484 1483 1483 1487 1491 1495 1498 1499 1500 1503 1502 1503 1505 1506 1507 1509 1510 1510 1509
1493 1499 1501 1503 1503 1504 1506 1505 1503 1503 1501 1500 1497 1495 1491 1490 1489 1487 1486 1483 1482 1481 1481 1481 1481 1481 1483 1482 1485 1490 1494 1497 1500 1501 1501 1502 1504 1505 1506 1508 1510 1510 1511
1491 1496 1497 1499 1503 1504 1503 1504 1502 1501 1500 1497 1495 1492 1490 1489 1487 1486 1484 1482 1480 1480 1479 1479 1479 1479 1478 1480 1481 1483 1489 1493 1496 1498 1499 1501 1502 1504 1505 1506 1508 1510 1510
1491 1491 1493 1496 1501 1504 1503 1502 1500 1498 1497 1494 1491 1488 1487 1485 1484 1484 1482 1479 1478 1478 1477 1477 1476 1476 1476 1476 1477 1478 1482 1486 1491 1492 1494 1497 1499 1500 1502 1504 1507 1509 1510
1490 1490 1492 1498 1499 1501 1501 1500 1497 1495 1493 1490 1486 1485 1482 1480 1481 1480 1478 1476 1475 1474 1474 1474 1473 1473 1473 1473 1473 1474 1476 1477 1481 1485 1488 1492 1494 1497 1499 1501 1505 1507 1508
1493 1493 1496 1496 1495 1496 1496 1496 1493 1492 1489 1487 1484 1483 1479 1477 1477 1475 1472 1471 1471 1470 1470 1470 1470 1470 1470 1470 1469 1469 1470 1472 1473 1479 1481 1485 1489 1491 1493 1496 1499 1504 1506
1493 1494 1495 1493 1491 1491 1493 1492 1489 1487 1485 1483 1482 1479 1475 1475 1473 1471 1469 1467 1467 1466 1466 1465 1465 1465 1464 1464 1465 1465 1465 1467 1469 1470 1474 1478 1482 1486 1489 1493 1496 1498 1502
1494 1491 1491 1488 1489 1489 1488 1487 1485 1483 1481 1480 1479 1475 1473 1472 1469 1467 1465 1463 1462 1462 1461 1460 1460 1459 1459 1459 1458 1459 1460 1460 1462 1464 1465 1471 1474 1479 1484 1486 1490 1493 1497
1489 1487 1492 1490 1490 1490 1487 1485 1483 1481 1479 1477 1475 1471 1470 1470 1467 1465 1463 1460 1458 1457 1456 1454 1454 1453 1452 1453 1452 1452 1454 1455 1456 1457 1460 1462 1466 1471 1476 1480 1483 1487 1493
1488 1492 1493 1494 1491 1490 1488 1485 1482 1479 1477 1475 1471 1469 1467 1466 1464 1462 1459 1457 1455 1452 1450 1449 1447 1447 1446 1445 1445 1445 1446 1448 1450 1450 1451 1455 1459 1463 1469 1473 1478 1482 1487
1492 1496 1495 1496 1492 1491 1489 1486 1482 1478 1475 1472 1470 1467 1465 1463 1461 1458 1455 1453 1450 1448 1446 1444 1443 1441 1439 1438 1438 1438 1439 1440 1443 1445 1446 1448 1451 1456 1461 1467 1472 1476 1481
Wind_Speed
27 20 16 15 15 14 15 15 17 17 17 18 20 23 24 23 18 18 18 19 21 20 20 21 22 19 17 13 7 7 11 9 9 9 11 12 15 10 9 7 6 7 4
26 24 18 15 15 13 12 13 14 15 17 19 15 15 15 16 17 18 21 22 22 20 18 21 22 20 17 16 7 7 9 7 5 5 10 15 15 11 10 7 9 8 5
29 26 22 18 16 14 11 11 11 11 11 13 15 17 18 18 22 22 20 22 22 19 18 18 17 15 13 14 6 6 6 4 3 1 10 16 16 13 10 10 9 7 7
31 25 22 18 16 13 12 12 13 15 16 18 17 19 19 21 22 19 21 25 23 17 18 14 11 15 10 10 7 7 6 4 6 3 12 16 16 13 9 10 9 9 8
26 24 22 18 18 17 16 16 18 19 19 19 17 19 21 22 21 25 24 20 21 15 16 13 9 13 10 8 7 8 7 6 9 8 14 17 20 18 12 9 6 6 8
23 23 21 21 22 21 19 18 18 20 18 20 20 23 26 25 26 23 20 19 20 17 14 15 12 13 10 8 7 8 7 6 9 12 13 16 17 17 12 10 6 6 4
20 24 23 22 22 21 19 18 19 20 22 25 27 22 22 20 19 17 17 19 19 16 15 14 14 12 9 7 8 8 9 7 7 10 11 13 15 14 10 10 7 4 2
16 17 17 18 17 14 12 13 16 17 16 16 16 16 16 14 11 11 15 14 13 11 12 15 14 12 9 8 9 8 7 6 6 11 13 9 6 12 8 7 5 4 5
12 12 12 11 10 8 7 8 8 9 10 11 13 13 11 7 5 9 8 12 12 9 6 7 10 10 7 10 9 8 6 8 9 10 15 13 10 10 11 8 7 4 5
9 9 9 9 8 7 5 5 5 6 8 9 10 8 5 4 7 7 10 8 6 9 10 9 4 8 8 10 8 7 4 6 8 11 12 13 13 12 13 10 7 3 4
9 9 8 7 5 3 1 4 5 5 7 8 9 7 5 2 3 2 4 4 7 13 10 9 9 13 10 8 7 5 4 5 9 11 11 13 13 13 11 9 7 6 7
11 9 6 5 4 3 1 3 4 6 7 6 4 3 4 4 2 3 2 6 10 10 6 5 2 4 8 6 7 7 5 7 11 13 13 12 13 11 8 5 6 5 6
11 9 6 6 5 4 3 5 5 6 6 5 3 2 2 2 3 5 5 8 11 12 9 4 6 5 8 6 6 9 8 11 13 15 11 8 7 7 3 3 6 2 1
11 12 10 7 5 4 7 7 10 12 10 6 5 4 5 6 7 8 7 8 9 9 7 6 7 9 10 11 10 15 11 12 12 12 9 6 7 5 3 7 7 3 3
16 12 9 8 7 4 2 6 10 13 14 13 8 7 9 10 9 9 11 11 9 8 6 5 11 12 12 16 15 18 16 17 17 12 9 11 8 6 8 11 8 4 4
15 11 10 11 8 6 2 5 7 10 12 15 16 11 9 11 13 11 9 13 10 8 8 4 8 13 13 16 21 22 20 19 19 16 11 12 10 7 13 13 9 4 2
17 11 9 6 6 6 3 5 6 9 11 13 15 17 14 11 11 11 12 11 9 7 6 5 8 13 13 14 17 23 22 19 19 16 12 13 9 11 16 15 11 8 5
14 10 6 3 6 7 8 8 8 12 15 16 16 16 14 11 11 10 9 10 6 4 4 6 7 8 10 18 18 18 21 22 23 20 15 16 13 11 15 18 16 13 10
11 9 4 4 4 6 8 10 14 16 19 20 19 15 12 9 9 10 8 9 8 6 5 6 6 9 10 9 15 20 19 23 26 24 22 19 19 15 16 14 21 16 13
9 6 4 5 5 7 11 14 16 18 18 18 18 18 13 11 10 9 9 9 10 9 8 8 8 8 12 12 12 14 19 22 25 27 27 24 23 20 17 16 19 22 17
6 5 5 6 8 11 13 15 14 15 16 16 15 16 16 13 13 12 10 10 12 12 11 12 12 11 11 13 12 14 17 20 25 27 28 26 26 27 22 22 21 20 19
8 5 6 5 4 5 8 10 10 10 10 11 12 13 13 13 12 13 12 12 12 14 15 16 15 13 13 14 15 15 14 19 24 30 26 27 28 31 23 23 24 22 21
2 3 3 5 6 5 6 7 8 9 10 10 10 10 12 13 13 12 13 13 12 14 16 17 16 17 16 16 16 18 18 15 19 23 30 30 32 33 31 25 26 23 24
7 8 7 9 10 11 10 9 9 9 11 13 13 13 11 13 15 15 14 14 14 13 15 16 18 19 19 19 19 20 21 20 18 22 28 31 32 34 35 27 29 25 24
11 12 14 15 16 17 17 14 12 10 10 11 13 13 12 13 14 14 16 15 15 15 14 15 16 19 22 21 21 23 24 22 21 19 22 29 32 34 35 29 31 27 25
15 15 17 17 19 20 21 19 16 13 11 10 10 11 11 12 12 13 13 13 13 14 16 16 17 20 20 20 22 24 24 25 24 22 21 23 27 31 34 33 34 29 28
Wind_Direction
229 223 234 241 235 233 244 248 245 246 251 257 262 265 270 277 278 285 289 289 283 283 281 287 289 294 293 280 276 247 247 271 279 221 213 211 195 191 194 187 167 165 169
229 222 226 225 230 234 247 255 257 257 260 267 268 273 278 284 284 289 296 295 292 288 286 287 283 286 292 290 256 231 241 261 279 249 216 182 184 171 179 197 184 180 174
228 223 225 220 221 228 241 254 263 272 270 275 281 281 285 297 296 297 303 301 302 300 274 266 284 289 294 295 255 238 228 231 193 278 172 168 174 171 178 189 202 201 192
223 226 223 221 224 236 253 259 271 274 278 279 282 287 296 297 299 303 303 311 308 305 299 263 281 291 285 294 257 242 207 208 194 159 148 164 175 167 181 196 198 218 225
209 221 216 214 222 227 240 253 263 264 264 275 285 290 291 295 298 299 298 304 301 300 297 280 274 284 274 279 250 253 230 204 207 184 160 166 179 187 192 197 186 218 250
213 209 211 214 216 224 237 251 254 264 274 284 290 293 292 295 298 298 296 296 301 296 280 278 270 275 259 276 214 253 255 246 209 200 178 179 190 196 200 216 225 236 248
196 203 210 215 221 235 246 254 268 277 284 290 292 297 296 292 302 289 298 301 303 293 280 274 274 276 245 252 215 236 254 244 228 230 194 185 200 201 214 225 221 224 244
195 202 212 219 233 246 262 278 280 282 292 296 299 302 299 310 302 300 305 316 312 294 294 280 274 276 226 238 221 231 237 218 209 218 216 215 217 200 188 204 227 251 264
187 195 203 214 225 243 248 267 288 297 298 305 312 313 304 318 295 302 326 323 313 316 310 299 283 262 239 210 207 221 205 186 188 187 194 218 218 208 203 214 247 268 258
178 183 186 194 203 212 228 258 274 286 294 327 329 304 308 289 289 299 330 347 7 359 346 334 288 222 211 199 195 212 200 172 184 190 188 189 200 212 215 215 235 257 268
166 166 166 174 170 163 173 243 262 280 299 323 337 331 310 284 244 280 357 8 1 356 353 329 316 206 186 191 196 197 183 164 183 184 174 177 188 186 191 214 231 265 275
195 188 170 143 108 77 84 274 306 314 318 326 333 11 36 9 283 238 317 324 323 340 1 35 98 163 185 189 194 197 189 169 159 158 160 172 174 188 193 233 221 252 291
181 181 176 151 135 92 47 18 353 348 346 340 327 315 309 356 339 343 338 326 323 328 325 202 209 215 239 241 212 215 191 179 164 150 154 146 137 161 211 224 206 255 53
149 141 131 113 102 63 10 10 3 1 359 343 344 335 333 297 284 293 313 313 321 314 302 237 219 238 229 233 231 223 203 193 186 169 171 187 192 192 223 190 181 87 57
134 129 143 132 108 104 28 355 356 356 356 353 352 348 332 323 313 322 331 333 329 312 301 257 221 227 231 232 231 223 213 198 203 205 214 223 227 230 197 181 173 123 51
139 149 137 139 144 125 36 349 339 337 340 340 330 323 315 306 305 301 307 317 320 310 298 295 266 231 232 244 236 225 214 217 212 223 225 216 230 229 190 188 181 160 91
162 163 155 147 158 180 243 308 304 314 325 329 329 319 311 305 307 308 312 306 313 303 293 270 268 256 244 232 251 235 222 220 220 230 218 201 230 206 194 194 199 193 189
158 152 163 215 266 272 274 281 294 305 312 317 314 312 307 299 297 294 290 304 306 345 320 273 275 281 265 249 237 243 232 227 225 229 225 219 231 227 201 199 206 208 198
145 154 183 223 238 260 270 285 296 305 307 310 306 299 287 286 285 286 289 284 303 303 305 291 274 264 275 268 247 243 242 236 227 227 228 225 227 230 212 200 208 209 204
161 142 141 215 242 269 290 291 293 297 301 303 307 314 315 300 289 269 266 274 273 276 285 274 276 278 255 256 263 256 243 225 225 223 222 228 227 232 217 207 211 206 209
175 176 216 246 269 285 294 293 297 295 297 302 306 310 319 317 306 306 298 283 283 285 275 272 266 262 266 259 249 257 257 241 220 218 219 221 226 229 225 206 204 214 216
195 235 269 276 282 294 294 300 304 305 311 321 320 318 322 319 312 304 297 287 286 281 279 274 275 271 262 257 256 255 252 247 235 219 220 220 226 233 239 217 206 205 210
184 101 45 25 2 344 326 327 328 325 324 320 309 312 323 321 318 313 309 304 295 279 280 276 271 268 271 259 249 248 251 250 242 237 222 227 228 230 230 220 208 207 214
89 69 50 53 39 19 3 350 347 347 348 345 340 334 322 323 322 319 312 309 302 296 284 278 271 269 265 262 246 238 243 248 251 235 231 230 227 224 224 223 213 214 206
81 74 65 54 49 38 29 19 12 12 3 357 355 349 342 332 320 314 311 309 304 299 293 280 273 273 268 265 259 245 240 244 249 242 228 225 226 223 226 227 217 215 212
80 68 61 50 45 39 32 26 21 18 10 7 360 353 352 343 337 334 328 317 313 317 313 304 293 283 278 270 261 252 244 240 244 248 235 220 217 220 220 225 218 215 209